Culdrose, United Kingdom

1:15 AM GMT on December 14, 2017 (GMT +0000)
Culdrose Navy

Weather History for EGDR - April, 2013

Change the Weather History Date:

Tuesday, April 30, 2013

  Actual Average Record
Temperature  
Mean Temperature 48 °F -  
Max Temperature 55 °F 56 °F 59 °F (2007)
Min Temperature 41 °F 46 °F 35 °F (2001)
Degree Days  
Heating Degree Days 17    
Moisture  
Dew Point 40 °F    
Average Humidity 75    
Maximum Humidity 93    
Minimum Humidity 46    
Precipitation  
Precipitation 0.01 in - - ()
Sea Level Pressure  
Sea Level Pressure 30.26 in    
Wind  
Wind Speed 10 mph ()    
Max Wind Speed 18 mph    
Max Gust Speed 30 mph    
Visibility 7.7 miles    
Events      
Averages and records for this station are not official NWS values.
T = Trace of Precipitation, MM = Missing Value Source: Averaged Metar Reports

Daily Weather History Graph

Daily Weather History Graph

Search for Another Location

Airport or City:

Trip Planner

Search our weather history database for the weather conditions in past years. The results will help you decide how hot, cold, wet, or windy it might be!

Date:

Astronomy

Apr. 30, 2013 Rise Set
Actual Time 5:58 AM BST 8:38 PM BST
Civil Twilight 5:22 AM BST 9:15 PM BST
Nautical Twilight 4:35 AM BST 10:02 PM BST
Astronomical Twilight 3:40 AM BST 10:58 PM BST
Moon 12:57 AM BST (4/30) 10:04 AM BST (4/30)
Length of Visible Light 15h 53m
Length of Day
14h 39m
Waning Gibbous, 72% of the Moon is Illuminated
Apr 30
Waning Gibbous
May 2
Last Quarter
May 10
New
May 18
First Quarter
May 25
Full

Hourly Weather History & Observations

Time (BST) Temp. Windchill Dew Point Humidity Pressure Visibility Wind Dir Wind Speed Gust Speed Precip Events Conditions
12:50 AM 44 °F - 41 °F 86% 30.27 in 9 mi NNW 4.6 mph - -   Haze
12:50 AM 42.8 °F 40.1 °F 41.0 °F 93% 30.24 in 6.2 mi NNW 4.6 mph - N/A   Haze
1:50 AM 44.6 °F 40.7 °F 41.0 °F 87% 30.24 in 6.2 mi North 6.9 mph - N/A   Haze
2:50 AM 42.8 °F 37.5 °F 41.0 °F 93% 30.24 in 6.2 mi NNE 9.2 mph - N/A   Haze
3:50 AM 42 °F - 40 °F 92% 30.25 in 9 mi NNE 6.9 mph - -   Haze
3:50 AM 42.8 °F 38.6 °F 41.0 °F 93% 30.24 in 6.2 mi NNE 6.9 mph - N/A   Haze
4:50 AM 42.8 °F 37.5 °F 41.0 °F 93% 30.24 in 6.2 mi NNE 9.2 mph - N/A   Haze
5:50 AM 41.0 °F 35.8 °F 39.2 °F 93% 30.24 in 6.2 mi NE 8.1 mph - N/A   Haze
6:50 AM 43 °F - 42 °F 92% 30.28 in 9 mi NE 8.1 mph - -   Haze
6:50 AM 42.8 °F 38.0 °F 41.0 °F 93% 30.27 in 6.2 mi NE 8.1 mph - N/A   Haze
7:50 AM 46.4 °F 41.1 °F 41.0 °F 81% 30.27 in 6.2 mi NE 11.5 mph - N/A   Haze
8:50 AM 48.2 °F - 39.2 °F 71% 30.27 in 6.2 mi NE 13.8 mph - N/A   Partly Cloudy
9:50 AM 51 °F - 40 °F 57% 30.30 in 12 mi NE 12.7 mph - -   Scattered Clouds
9:50 AM 51.8 °F - 41.0 °F 67% 30.27 in 6.2 mi NE 12.7 mph - N/A   Partly Cloudy
10:50 AM 51.8 °F - 39.2 °F 62% 30.30 in 6.2 mi NE 15.0 mph - N/A   Partly Cloudy
11:50 AM 55.4 °F - 39.2 °F 54% 30.27 in 6.2 mi NE 13.8 mph - N/A   Partly Cloudy
12:50 PM 53 °F - 40 °F 52% 30.29 in 16 mi NNE 13.8 mph - -   Scattered Clouds
12:50 PM 53.6 °F - 41.0 °F 62% 30.27 in 6.2 mi NNE 13.8 mph 25.3 mph N/A   Partly Cloudy
1:50 PM 55.4 °F - 41.0 °F 58% 30.27 in 6.2 mi NNE 15.0 mph - N/A   Partly Cloudy
2:50 PM 55.4 °F - 39.2 °F 54% 30.27 in 6.2 mi NNE 17.3 mph - N/A   Partly Cloudy
3:50 PM 53 °F - 38 °F 46% 30.27 in 16 mi NNE 18.4 mph - -   Scattered Clouds
3:50 PM 53.6 °F - 39.2 °F 58% 30.24 in 6.2 mi NNE 18.4 mph 29.9 mph N/A   Partly Cloudy
4:50 PM 51.8 °F - 41.0 °F 67% 30.24 in 6.2 mi NNE 17.3 mph - N/A   Partly Cloudy
5:50 PM 50.0 °F - 41.0 °F 71% 30.24 in 6.2 mi NNE 18.4 mph - N/A   Partly Cloudy
6:50 PM 49 °F - 41 °F 64% 30.27 in 12 mi NNE 17.3 mph - -   Scattered Clouds
6:50 PM 50.0 °F - 41.0 °F 71% 30.24 in 6.2 mi NNE 17.3 mph - N/A   Partly Cloudy
7:50 PM 48.2 °F - 41.0 °F 76% 30.24 in 6.2 mi NNE 16.1 mph - N/A   Partly Cloudy
8:50 PM 46.4 °F 40.4 °F 41.0 °F 81% 30.27 in 6.2 mi NNE 13.8 mph - N/A   Partly Cloudy
9:50 PM 45 °F - 42 °F 84% 30.30 in 12 mi NNE 12.7 mph - -   Scattered Clouds
9:50 PM 44.6 °F 38.4 °F 41.0 °F 87% 30.27 in 6.2 mi NNE 12.7 mph - N/A   Partly Cloudy
10:50 PM 44.6 °F 38.4 °F 41.0 °F 87% 30.27 in - North 12.7 mph - N/A   Clear
11:50 PM 44.6 °F 39.2 °F 39.2 °F 81% 30.27 in - NNE 10.4 mph - N/A   Clear